Location: Hradec Kralove
(50.2170°N, 15.8330°E)
Time: 11:59:49
(UTC+02:00)

Explorer 7 - Pass Details

Date: 27 January 2023
Orbit: 478 x 657 km, 50.3° (Epoch: 26 March)

Event Time Altitude Azimuth Distance (km) Brightness Sun altitude
Rises 13:57:09 0° 206° (SSW) 2,747 12.2 17.3°
Reaches altitude 10° 13:59:43 10° 191° (SSW) 1,890 11.4 17.2°
Maximum altitude 14:03:05 22° 140° (SE) 1,315 9.2 16.9°
Drops below altitude 10° 14:06:36 10° 90° (E) 1,986 9.4 16.6°
Sets 14:09:22 0° 75° (ENE) 2,926 10.1 16.4°
